GPS BIIF-2

Last updated on Wed Apr 24 2024 00:02:27 GMT+0000 (Coordinated Universal Time)

1 37753U 11036A 24114.36503221 -.00000086 00000+0 00000+0 0 9993 2 37753 56.7627 2.4758 0128822 57.5780 130.3997 2.00525041 93532

Satellite not in orbit

GPS BIIF-2